TimeMDT,TemperatureF,Dew PointF,Humidity,Sea Level PressureIn,VisibilityMPH,Wind Direction,Wind SpeedMPH,Gust SpeedMPH,PrecipitationIn,Events,Conditions,WindDirDegrees,DateUTC
12:53 AM,64.9,33.1,31,29.76,10.0,WSW,5.8,-,N/A,,Clear,250,2013-05-15 06:53:00
1:53 AM,62.1,30.0,30,29.79,10.0,NW,13.8,-,N/A,,Clear,320,2013-05-15 07:53:00
2:53 AM,57.0,32.0,39,29.81,10.0,WNW,13.8,-,N/A,,Clear,290,2013-05-15 08:53:00
3:53 AM,55.0,28.0,35,29.82,10.0,WNW,12.7,-,N/A,,Clear,290,2013-05-15 09:53:00
4:53 AM,54.0,27.0,35,29.84,10.0,WNW,16.1,-,N/A,,Clear,300,2013-05-15 10:53:00
5:53 AM,52.0,27.0,38,29.86,10.0,WNW,13.8,-,N/A,,Clear,300,2013-05-15 11:53:00
6:53 AM,54.0,25.0,33,29.88,10.0,WNW,11.5,-,N/A,,Clear,290,2013-05-15 12:53:00
7:53 AM,57.9,27.0,31,29.89,10.0,East,5.8,-,N/A,,Clear,80,2013-05-15 13:53:00
8:53 AM,61.0,27.0,27,29.91,10.0,East,3.5,-,N/A,,Clear,80,2013-05-15 14:53:00
9:53 AM,63.0,28.0,27,29.90,10.0,ESE,5.8,-,N/A,,Clear,110,2013-05-15 15:53:00
10:53 AM,66.9,28.0,23,29.88,10.0,ESE,4.6,-,N/A,,Clear,110,2013-05-15 16:53:00
11:53 AM,69.1,28.0,22,29.85,10.0,Calm,Calm,-,N/A,,Clear,0,2013-05-15 17:53:00
12:53 PM,73.0,28.9,20,29.83,10.0,Calm,Calm,-,N/A,,Clear,0,2013-05-15 18:53:00
1:53 PM,75.9,30.0,19,29.79,10.0,Variable,3.5,-,N/A,,Clear,0,2013-05-15 19:53:00
2:53 PM,78.1,28.9,17,29.75,10.0,Calm,Calm,-,N/A,,Clear,0,2013-05-15 20:53:00
3:53 PM,80.1,28.0,15,29.73,10.0,NNW,3.5,-,N/A,,Clear,330,2013-05-15 21:53:00
4:53 PM,80.1,26.1,14,29.71,10.0,WNW,5.8,-,N/A,,Clear,290,2013-05-15 22:53:00
5:53 PM,79.0,26.1,14,29.71,10.0,Calm,Calm,-,N/A,,Clear,0,2013-05-15 23:53:00
6:53 PM,78.1,30.0,17,29.69,10.0,NNW,10.4,-,N/A,,Clear,340,2013-05-16 00:53:00
7:53 PM,75.0,32.0,21,29.69,10.0,NNW,11.5,-,N/A,,Clear,330,2013-05-16 01:53:00
8:53 PM,72.0,35.1,26,29.68,10.0,NNW,10.4,-,N/A,,Clear,330,2013-05-16 02:53:00
9:53 PM,68.0,36.0,31,29.70,10.0,WNW,8.1,-,N/A,,Clear,290,2013-05-16 03:53:00
10:53 PM,68.0,35.1,30,29.71,10.0,WNW,8.1,-,N/A,,Mostly Cloudy,290,2013-05-16 04:53:00
11:53 PM,66.9,36.0,32,29.72,10.0,North,8.1,23.0,0.00,Rain,Light Rain,360,2013-05-16 05:53:00